カタログに戻る

CZ-6A DEB

運用中SSO
NORAD 54547·DEBRIS·🇨🇳 China

打ち上げ Nov 11, 2022 から Taiyuan Satellite Launch Center

Loading…

次のパス (今後24時間)

TLE

最新Source: Space-Track

元期: Sep 14, 2026, 12:16 UTC

1 54547U 22151KX  26257.51175385  .00004030  00000-0  15451-2 0  9998
2 54547  98.8067 270.0982 0090658  84.7445 276.4074 14.28837991198373

AllMySatでCZ-6A DEBをリアルタイム追跡

Download on the App Store